RH
63 55 57 82 88 85 86 90 94 95 85 58 38 57 40 34 57 70 70 65 65 73 98 92 90 87 86 85 85 85 86 84 85 86 86 83 82 83 84 81 80 80 81
46 58 59 54 56 91 100 99 100 100 94 70 46 61 62 43 60 73 71 68 68 79 96 93 88 86 85 84 84 85 84 83 83 85 86 88 84 80 83 85 86 84 84
48 57 57 56 59 81 95 99 98 99 89 70 80 67 65 58 61 70 75 68 79 87 96 94 91 89 85 82 82 83 83 86 85 83 84 85 84 85 87 87 86 84 84
49 56 56 57 61 68 73 91 91 92 85 86 82 58 62 62 68 74 72 75 84 84 91 90 93 93 86 82 84 82 84 84 85 87 86 86 87 85 84 84 84 83 81
49 58 63 60 63 62 80 87 86 77 76 92 97 94 89 81 74 72 76 80 86 92 94 100 92 87 86 88 85 83 84 84 86 87 88 88 84 80 83 84 83 81 82
61 68 79 75 67 64 75 88 85 100 100 100 98 99 96 93 84 78 86 90 95 94 96 90 91 84 86 88 85 87 85 86 86 86 88 84 80 83 84 81 81 81 81
58 71 81 90 79 71 71 94 94 97 100 100 100 100 100 100 100 100 92 98 99 94 96 91 86 84 88 87 89 90 85 84 86 87 84 78 80 82 81 81 81 80 78
58 53 72 93 90 84 84 92 100 100 99 97 93 98 99 97 100 100 100 100 98 93 93 94 93 88 89 84 87 87 86 83 79 77 79 80 80 82 80 79 80 80 80
65 67 76 83 90 94 80 85 99 100 98 100 93 82 99 98 97 97 100 100 100 95 92 90 93 92 90 86 89 87 84 74 73 76 77 78 79 80 77 79 78 80 80
61 63 67 84 88 86 89 76 81 99 99 99 100 98 81 84 95 99 97 96 99 100 96 94 90 89 91 88 86 83 74 56 77 73 74 75 77 76 78 78 82 80 78
63 61 62 65 74 92 85 78 74 74 99 98 99 99 94 94 89 92 98 96 94 96 96 96 94 92 91 88 87 83 73 52 70 71 71 72 75 79 84 84 82 80 79
68 68 70 63 62 69 90 83 76 72 78 98 94 92 92 88 93 92 95 94 92 99 98 98 94 91 91 92 90 88 73 48 72 74 74 76 80 86 88 86 84 81 79
79 73 71 74 68 68 68 88 88 80 76 89 99 98 95 86 75 82 85 94 96 96 99 98 98 97 97 97 92 79 57 46 44 54 74 78 87 87 83 84 84 83 80
86 81 80 78 80 72 74 79 95 92 91 92 88 91 100 94 84 81 82 89 94 81 83 90 93 93 88 76 73 68 56 45 40 37 46 58 47 36 34 52 85 87 85
80 75 76 75 80 82 77 78 98 100 100 98 92 94 99 99 91 89 86 83 86 96 93 76 80 83 71 70 64 59 54 48 41 38 35 32 28 27 31 69 88 90 89
93 88 89 86 76 79 83 85 99 100 100 100 100 100 100 98 91 85 94 92 87 86 91 80 78 71 70 64 62 61 57 50 45 41 36 32 29 30 57 89 93 91 90
88 86 87 88 85 79 81 86 100 100 99 100 100 99 100 99 99 98 97 93 93 79 79 76 69 64 66 66 67 66 57 52 50 45 49 63 71 76 84 92 86 85 89
99 100 100 98 89 87 91 97 100 100 100 100 100 100 100 100 95 94 85 78 70 69 62 76 73 67 69 72 66 63 62 60 54 44 39 62 76 61 92 90 84 79 83
97 99 100 100 97 94 95 100 100 100 100 100 99 100 100 100 100 93 81 91 92 96 88 77 79 74 76 74 72 69 66 61 50 36 38 72 58 74 80 77 74 75 78
100 100 100 99 97 96 99 100 100 99 100 100 100 100 100 100 99 96 100 98 96 94 80 76 77 75 79 80 72 69 65 50 43 46 47 50 49 43 46 52 72 71 67
100 100 100 99 100 100 98 100 100 100 100 100 100 99 100 100 100 100 98 100 96 83 76 68 76 78 78 77 72 65 48 45 47 45 49 49 46 34 36 45 45 43 66
100 99 100 100 100 100 100 100 99 100 100 99 99 98 100 100 100 100 99 93 87 74 68 73 76 76 74 72 65 51 50 54 52 60 56 36 40 39 44 44 38 55 66
100 100 100 100 100 100 100 100 100 100 100 100 100 100 99 99 95 92 91 81 74 64 60 57 65 67 60 50 44 50 51 48 47 50 49 50 44 39 38 38 39 44 78
100 100 100 100 99 99 100 96 98 99 98 98 94 86 82 77 71 64 59 59 58 54 50 47 50 38 32 37 41 39 38 44 48 55 54 54 45 42 40 43 43 58 82
99 100 100 100 100 100 100 96 92 88 85 87 86 84 77 67 58 52 43 45 47 49 39 34 34 35 34 34 35 35 39 37 58 60 65 66 62 58 46 47 54 77 79
100 100 100 100 100 99 99 95 82 79 79 76 71 68 57 55 50 39 32 34 45 56 43 40 42 47 40 37 35 38 38 44 59 72 65 64 75 70 69 56 48 48 47
Wind_Speed
8 7 8 10 14 18 23 27 28 26 21 17 17 14 14 18 18 13 19 17 14 16 21 20 18 17 16 16 16 15 13 12 11 11 11 10 10 9 9 8 8 7 6
8 9 9 10 9 10 17 24 27 23 21 14 16 14 15 15 18 13 20 17 15 19 23 20 19 18 17 16 15 15 13 12 12 11 10 9 9 8 8 8 7 6 5
10 12 12 12 10 10 12 16 15 14 13 13 9 11 13 14 16 17 21 18 20 25 22 20 19 19 17 16 15 14 13 12 10 10 10 9 8 8 7 7 6 5 5
13 15 16 14 12 11 13 12 14 17 18 24 25 17 16 17 15 21 22 21 24 24 24 24 23 20 18 17 15 14 13 12 12 11 10 8 7 6 7 6 5 4 4
16 17 19 18 15 12 11 13 16 21 28 20 19 21 22 24 25 26 25 24 24 24 24 23 23 22 20 18 15 14 13 12 11 11 10 8 7 7 6 5 5 4 3
15 16 19 19 16 12 12 14 19 21 23 23 22 18 18 21 25 28 30 27 28 26 24 24 23 22 21 19 17 14 12 11 11 10 9 8 8 8 6 5 4 2 1
14 16 18 20 18 16 16 18 19 23 19 24 21 12 11 14 18 20 23 24 26 29 23 27 26 24 23 19 17 16 12 11 10 9 8 7 8 8 6 5 3 1 1
13 18 17 23 23 20 18 19 24 17 18 30 15 9 2 1 4 13 20 26 28 26 27 26 24 21 23 22 20 17 14 11 9 8 8 8 8 8 6 4 2 0 2
15 14 15 20 24 25 23 20 25 26 20 29 25 7 3 4 3 3 11 21 25 27 28 27 25 26 24 23 23 21 17 12 10 8 8 8 8 7 5 4 2 2 4
16 17 15 15 22 24 27 22 25 30 24 22 20 15 8 8 3 2 6 10 15 25 26 27 29 28 27 28 26 22 16 12 11 9 8 8 7 7 6 4 3 4 4
20 19 19 19 16 22 26 27 27 29 27 23 23 15 12 11 6 3 3 5 10 14 20 25 28 28 28 27 23 19 15 13 10 9 9 8 7 6 5 4 4 4 4
21 21 22 21 22 20 22 27 31 32 34 28 26 25 22 12 8 5 3 1 8 8 14 19 25 27 27 25 22 18 15 14 12 10 8 8 8 7 5 5 5 5 5
24 24 21 21 22 21 22 25 30 36 36 32 28 28 29 28 19 17 8 6 3 4 8 17 18 22 22 21 19 18 18 19 16 12 9 9 9 9 8 6 7 6 6
24 22 22 22 25 22 23 23 28 33 35 35 34 31 26 28 29 26 17 11 2 2 5 7 23 23 23 22 19 18 19 18 16 16 14 13 14 13 11 9 8 7 8
24 24 23 24 25 25 23 24 26 28 31 34 35 33 29 29 28 29 34 29 11 5 7 14 12 27 25 23 21 20 19 17 15 15 14 13 11 11 10 9 8 8 7
22 25 27 28 29 29 25 24 25 27 29 31 30 32 32 29 31 29 31 28 27 12 4 16 22 20 27 23 21 19 18 16 14 11 10 10 11 9 8 8 7 5 6
25 27 28 28 28 30 28 25 25 25 28 29 30 30 31 31 31 31 30 28 23 16 5 5 16 15 26 25 23 18 16 14 12 10 9 8 7 6 8 6 6 6 7
22 23 22 22 26 28 26 24 27 26 29 27 29 29 28 28 29 30 29 28 23 16 10 7 11 16 20 23 21 17 14 12 10 9 8 7 6 8 6 8 8 8 8
20 18 19 20 22 24 24 25 27 27 28 29 28 28 29 29 26 30 30 28 25 16 13 10 8 15 16 21 18 14 11 9 8 7 7 6 7 5 6 7 8 8 7
18 14 12 17 23 20 20 27 26 24 24 22 23 24 27 30 31 31 27 23 20 17 13 13 8 15 18 17 14 12 9 7 7 7 7 7 8 8 9 9 7 9 8
13 8 3 5 14 19 22 28 23 23 21 18 16 17 20 23 26 25 26 21 19 18 15 17 15 10 11 15 13 10 8 7 6 7 7 7 9 11 8 8 9 10 9
13 9 4 4 8 14 20 18 23 23 20 19 18 15 13 12 15 14 13 15 15 18 17 14 11 16 13 13 12 11 7 4 2 5 5 7 10 6 7 8 11 11 14
13 13 11 8 11 14 15 16 17 20 22 24 23 21 18 16 17 15 11 10 11 11 12 15 20 17 15 15 15 11 7 4 3 2 5 5 4 7 7 11 17 18 10
17 16 17 19 23 20 19 15 16 22 23 22 21 21 22 21 17 18 19 18 16 13 11 11 16 16 13 14 10 7 7 5 2 1 1 3 6 11 12 15 11 6 6
21 19 21 24 23 22 20 23 24 25 25 23 21 20 21 21 20 21 25 27 26 23 19 18 18 17 15 13 10 8 7 5 2 2 3 3 5 14 16 8 4 8 12
20 20 24 22 21 22 18 22 21 23 25 23 20 19 18 20 20 21 25 28 28 23 22 20 17 15 12 11 8 6 5 5 3 2 3 5 5 7 8 6 3 9 19
Wind_Direction
265 274 285 272 261 253 242 232 229 224 220 221 216 217 218 215 206 219 202 196 203 197 170 163 162 155 157 154 153 151 151 151 151 148 146 142 138 138 130 129 124 124 109
273 264 273 283 285 262 255 240 228 219 214 215 216 234 236 216 208 217 205 192 200 192 171 167 164 161 162 158 157 155 156 154 155 150 149 147 144 138 135 130 122 117 107
275 267 266 272 280 252 248 250 252 233 210 181 242 232 251 211 212 228 200 197 199 183 169 167 168 165 164 162 159 159 157 156 158 152 148 147 146 141 132 124 115 109 101
276 266 267 269 273 258 248 246 239 221 193 177 198 189 210 225 195 195 195 184 180 185 183 183 173 170 167 166 161 162 165 161 157 152 149 148 145 142 138 127 117 106 98
281 270 263 263 266 258 230 222 224 207 192 203 205 189 195 196 191 189 193 184 186 188 184 183 175 173 167 166 161 165 167 165 162 159 155 154 155 151 147 133 124 115 104
282 278 256 251 256 251 230 224 221 202 196 192 185 180 181 190 191 190 183 181 180 181 184 184 183 174 176 166 162 164 169 168 167 166 167 163 158 159 153 139 126 104 77
288 279 263 248 242 240 232 221 220 194 174 179 158 159 173 186 182 179 184 187 191 189 187 182 180 178 180 170 163 163 169 172 174 176 178 174 164 164 163 156 138 82 0
291 275 268 249 239 233 226 221 220 204 196 196 187 158 172 279 170 178 188 190 190 189 189 189 188 187 183 173 173 168 173 172 181 183 176 175 172 168 169 171 169 319 305
290 296 277 256 249 231 232 226 222 204 194 200 216 172 148 205 138 193 197 186 188 189 191 192 188 191 190 182 180 176 177 168 181 184 186 183 183 183 184 191 240 289 298
294 288 286 266 260 250 231 226 225 220 205 193 199 222 166 145 164 180 260 178 198 185 189 188 194 200 199 196 190 193 196 187 182 184 195 195 201 208 199 216 249 275 287
287 278 276 274 263 263 249 237 220 227 215 200 201 198 183 185 169 146 151 195 193 192 192 197 194 191 192 196 194 204 208 207 198 186 193 201 202 212 218 236 254 263 263
288 281 275 272 267 263 257 249 239 229 229 227 221 215 201 170 174 172 111 161 167 191 193 203 198 192 194 199 204 214 214 208 184 190 191 187 199 202 221 236 248 256 253
288 286 280 276 268 267 260 255 247 239 231 220 213 218 217 207 212 195 169 145 149 176 199 209 206 203 207 212 212 216 213 211 210 195 189 187 195 206 222 242 250 240 240
288 282 281 277 265 270 261 259 248 239 227 215 218 221 219 212 208 204 199 154 124 166 188 183 209 213 216 215 219 219 217 219 216 213 210 215 240 254 253 242 253 253 239
285 280 280 278 275 267 264 255 248 230 223 216 212 219 217 210 213 212 201 192 151 159 209 207 188 210 215 221 220 220 222 222 223 226 231 238 248 255 255 247 245 236 241
280 282 278 273 268 265 265 258 246 226 218 212 208 207 212 216 215 206 207 195 195 168 191 199 204 204 209 211 216 218 219 218 223 229 245 251 253 256 260 248 237 247 263
289 287 278 270 259 256 260 256 235 219 210 205 205 212 208 214 216 213 214 204 195 182 161 166 190 193 199 203 203 207 214 221 230 236 242 246 256 266 260 242 254 275 273
301 291 286 263 255 255 256 239 219 209 205 200 205 209 205 209 210 210 200 189 183 180 138 163 164 172 194 199 204 204 208 222 233 240 244 253 264 272 240 235 275 278 275
311 291 282 258 258 251 244 224 208 209 205 206 210 211 209 201 193 191 194 193 187 192 178 186 142 173 172 184 185 192 204 220 234 242 237 237 254 251 251 264 270 274 262
316 301 283 264 262 248 219 200 197 198 195 195 202 207 208 193 190 192 192 185 181 179 175 167 144 152 160 171 187 188 197 216 225 236 244 241 246 256 264 270 264 260 270
349 343 271 325 186 187 184 183 181 180 180 173 175 184 185 187 193 193 189 179 174 167 170 159 146 152 152 165 189 191 194 201 224 240 244 252 265 281 266 247 260 273 268
18 29 68 113 149 172 176 190 179 169 159 152 148 173 167 174 165 170 171 178 183 181 176 171 158 155 165 176 177 179 172 187 219 220 275 280 281 261 252 259 285 275 279
40 57 67 87 104 112 152 154 155 146 146 148 150 145 135 138 143 138 147 159 177 198 211 190 168 165 164 174 172 167 174 180 201 227 303 292 258 277 276 277 287 282 264
57 71 83 96 97 97 107 133 136 135 132 132 135 136 135 133 129 144 144 133 123 126 147 146 151 150 157 155 167 165 164 162 189 216 279 297 290 292 305 303 291 238 212
66 67 82 92 95 95 101 121 128 123 125 125 132 135 136 130 135 142 138 126 118 110 118 127 132 133 139 143 148 151 148 152 122 219 270 283 299 323 321 319 218 196 215
78 75 81 86 93 103 115 127 131 131 124 123 123 126 133 130 140 147 141 135 126 129 131 127 123 123 128 131 136 156 142 124 143 176 214 323 305 346 320 294 272 270 274